NUDTSAT (42787 NORAD) Tracking and Keplerian Element Data

This shows tracking and keplerian element data for the satellite.

Feedback or suggestion? Click here.




ElementValue
Catalog42787
NameNUDTSAT
Epoch Orbit23670
Epoch Day269.18309607
Epoch Year2021
RAAN317.7532
Inclination97.2462
Eccentricity0.0009361
Argument of Perigee167.8685
Mean Anonmoly192.2782
Mean Motion15.27059901
Decay Rate3.984E-05
L11 42787U 17036Y 21269.18309607 .00003984 00000-0 15262-3 0 9992
L22 42787 97.2462 317.7532 0009361 167.8685 192.2782 15.27059901236706

Live tracking and technical data element details for NUDTSAT (NORAD 42787). NUDTSAT can be tracked NOW for your location showing map with azimuth and elevation plus other details from your city location.

Track the satellite on the map from your city or location and see movement details for azimuth, elevation, latitude, longitude, range, height, and movement on the map or in text.







IsCatalogInMostPopularTable: catalog: 42787, numindb: 545
Update: records affected: 1



GetName: 42787 NUDTSAT

Hit Count: updated at: Mon, 27 Sep 2021 00:08:51 GMT